sat.trackr.live / text

‹ back to catalog

IRIDIUM 124

NORAD 42810 · 2017-039H

PAYLOAD ACTIVE UNKNOWN

§ Identity

Operator
Country
US
Launch date
2017-06-25
Launch site
AFWTR
Launch vehicle
Mass (kg)
RCS (m²)

Purposes: comms

External: N2YO · Heavens-Above · Gunter

§ Orbital elements

Epoch: 2026-09-19T04:53:17.045664Z

Period
99.77 min
Inclination
86.4439°
Eccentricity
0.0002346
Mean motion
14.43280405 rev/d
Perigee alt
746.0 km
Apogee alt
749.4 km
Semi-major
7,125.8 km
B*
3.0186e-5
RAAN
251.0277°
Arg perigee
86.6306°
Mean anomaly
273.5163°
Rev number
48,867

§ Raw data

IRIDIUM 1241 42810U 17039H   26262.20366951  .00000122  00000+0  30186-4 0  99912 42810  86.4439 251.0277 0002346  86.6306 273.5163 14.43280405488670

JSON: /api/v1/satellites/42810 · /tle

For live sub-satellite position, see the globe view (requires WebGL).

§ Visibility from observer

Set your observer location to see the next 7 days of passes ≥ 10°. The values pass through the URL so the page stays shareable.

No JS? Fill the form by hand. The geolocation button needs JavaScript.